Hourly Data Report for July 18, 2021

CARIBOU POINT (AUT)
NOVA SCOTIA
Current Station Operator: ECCC - MSC

45°46'00.000" N
62°41'00.000" W
2.40 m
8200774
71415
WBK

Download Data

Hourly Data (July 2021)
Hourly Data Report for July 18, 2021
TIME
LST
Temp Definition
°C
Dew Point Definition
°C
Rel Hum Definition
%
Precip. Amount Definition
mm

Wind Dir Definition
10's deg

Wind Spd Definition
km/h
Visibility Definition
km
Stn Press Definition
kPa
Hmdx Definition


Wind Chill Definition


Weather Definition


00:00 19.1 16.1 83 0.0 22 9   101.71     LegendNANA
01:00 19.1 15.6 80 0.0 23 6   101.71     LegendNANA
02:00 19.0 15.4 80 0.0 24 6   101.70     LegendNANA
03:00 18.6 14.9 79 0.0 23 9   101.72     LegendNANA
04:00 18.5 14.7 79 0.0 23 11   101.72     LegendNANA
05:00 18.5 15.4 82 0.0 23 5   101.74     LegendNANA
06:00 20.5 15.4 73 0.0 26 8   101.77 25   LegendNANA
07:00 21.5 15.9 71 0.0 27 11   101.82 26   LegendNANA
08:00 21.1 17.3 79 0.0 29 19   101.85 27   LegendNANA
09:00 21.3 17.2 77 0.0 31 19   101.85 27   LegendNANA
10:00 21.8 17.7 78 0.0 31 16   101.87 28   LegendNANA
11:00 21.2 17.9 82 0.0 31 13   101.86 27   LegendNANA
12:00 22.0 18.4 80 0.0 31 12   101.84 28   LegendNANA
13:00 21.3 17.9 81 0.0 34 4   101.80 27   LegendNANA
14:00 20.6 17.7 83 0.0 6 10   101.79 26   LegendNANA
15:00 19.9 17.4 85 0.0 8 7   101.78     LegendNANA
16:00 20.0 16.9 83 0.0 12 2   101.78 25   LegendNANA
17:00 20.1 17.6 85 0.0 15 5   101.77 26   LegendNANA
18:00 19.8 17.4 86 0.0 15 9   101.74     LegendNANA
19:00 19.3 17.4 89 0.0 14 11   101.76     LegendNANA
20:00 19.3 17.6 90 0.0 15 7   101.75     LegendNANA
21:00 19.3 17.6 90 0.0 19 8   101.77     LegendNANA
22:00 19.9 18.1 89 0.0 20 8   101.76     LegendNANA
23:00 19.6 17.9 90 0.0 16 1   101.69     LegendNANA

Notes on Data Quality.

Legend

  • E = Estimated
  • M = Missing
  • NA = Not Available*
  • [empty] = Indicates an unobserved value
Date modified: